Wilmington, NC

5:29 AM EDT on July 21, 2017 (GMT -0400)
Wilmington International

Weather History for KILM - April, 2012

Change the Weather History Date:

Wednesday, April 11, 2012

  Actual Average Record
Temperature  
Mean Temperature 55 °F 62 °F  
Max Temperature 66 °F 73 °F 88 °F (1908)
Min Temperature 44 °F 51 °F 34 °F (1989)
Degree Days  
Heating Degree Days 10 5  
Month to date heating degree days 54 66  
Since 1 July heating degree days 1768 2318  
Cooling Degree Days 0 2  
Month to date cooling degree days 12 16  
Year to date cooling degree days 87 37  
Growing Degree Days 6 (Base 50)    
Moisture  
Dew Point 34 °F    
Average Humidity 47    
Maximum Humidity 72    
Minimum Humidity 22    
Precipitation  
Precipitation 0.05 in 0.09 in 1.86 in (1956)
Month to date precipitation 0.42 1.08  
Year to date precipitation 7.93 12.67  
Snow  
Snow 0.00 in 0.00 in T in (1989)
Month to date snowfall 0.0 0.0  
Since 1 July snowfall T 1.7  
Snow Depth 0.00 in    
Sea Level Pressure  
Sea Level Pressure 29.95 in    
Wind  
Wind Speed 11 mph (NW)    
Max Wind Speed 20 mph    
Max Gust Speed 30 mph    
Visibility 10 miles    
Events Rain    
T = Trace of Precipitation, MM = Missing Value Source: NWS Daily Summary

Daily Weather History Graph

Daily Weather History Graph

Search for Another Location

Airport or City:

Trip Planner

Search our weather history database for the weather conditions in past years. The results will help you decide how hot, cold, wet, or windy it might be!

Date:

Astronomy

Apr. 11, 2012 Rise Set
Actual Time 6:44 AM EDT 7:40 PM EDT
Civil Twilight 6:19 AM EDT 8:06 PM EDT
Nautical Twilight 5:48 AM EDT 8:36 PM EDT
Astronomical Twilight 5:17 AM EDT 9:08 PM EDT
Moon 12:23 AM EDT (4/11) 10:40 AM EDT (4/11)
Length of Visible Light 13h 46m
Length of Day
12h 55m
Waning Gibbous, 69% of the Moon is Illuminated
Apr 11
Waning Gibbous
Apr 13
Last Quarter
Apr 21
New
Apr 29
First Quarter
May 5
Full

Hourly Weather History & Observations

Time (EDT) Temp. Dew Point Humidity Pressure Visibility Wind Dir Wind Speed Gust Speed Precip Events Conditions
12:53 AM 64.4 °F 51.8 °F 64% 29.83 in 10.0 mi West 8.1 mph - N/A   Overcast
1:53 AM 61.0 °F 53.1 °F 75% 29.82 in 10.0 mi WSW 8.1 mph - 0.04 in Rain Light Rain
2:53 AM 60.1 °F 53.1 °F 78% 29.80 in 10.0 mi WSW 6.9 mph - 0.01 in   Overcast
3:53 AM 60.1 °F 52.0 °F 75% 29.82 in 10.0 mi West 10.4 mph - N/A   Mostly Cloudy
4:53 AM 57.0 °F 42.1 °F 57% 29.84 in 10.0 mi WNW 8.1 mph - N/A   Mostly Cloudy
5:53 AM 54.0 °F 37.0 °F 53% 29.87 in 10.0 mi NW 8.1 mph - N/A   Clear
6:53 AM 51.1 °F 33.1 °F 50% 29.90 in 10.0 mi NNW 10.4 mph - N/A   Clear
7:53 AM 53.1 °F 33.1 °F 47% 29.94 in 10.0 mi NNW 9.2 mph - N/A   Clear
8:53 AM 55.0 °F 33.1 °F 43% 29.96 in 10.0 mi North 12.7 mph - N/A   Clear
9:53 AM 57.0 °F 34.0 °F 42% 29.98 in 10.0 mi North 15.0 mph 20.7 mph N/A   Clear
10:53 AM 59.0 °F 32.0 °F 36% 29.98 in 10.0 mi NNW 12.7 mph - N/A   Clear
11:53 AM 60.1 °F 28.9 °F 31% 29.96 in 10.0 mi Variable 5.8 mph 23.0 mph N/A   Clear
12:53 PM 63.0 °F 28.9 °F 28% 29.96 in 10.0 mi NNW 15.0 mph 21.9 mph N/A   Clear
1:53 PM 64.0 °F 27.0 °F 25% 29.95 in 10.0 mi NW 21.9 mph - N/A   Clear
2:53 PM 64.9 °F 28.0 °F 25% 29.94 in 10.0 mi WNW 16.1 mph 19.6 mph N/A   Partly Cloudy
3:53 PM 66.0 °F 27.0 °F 23% 29.94 in 10.0 mi NW 16.1 mph 23.0 mph N/A   Scattered Clouds
4:53 PM 64.0 °F 25.0 °F 23% 29.95 in 10.0 mi NW 19.6 mph 25.3 mph N/A   Partly Cloudy
5:53 PM 62.1 °F 24.1 °F 23% 29.96 in 10.0 mi NW 12.7 mph - N/A   Partly Cloudy
6:53 PM 60.1 °F 28.0 °F 30% 29.99 in 10.0 mi North 11.5 mph 18.4 mph N/A   Partly Cloudy
7:53 PM 55.0 °F 28.9 °F 37% 30.02 in 10.0 mi North 9.2 mph - N/A   Clear
8:53 PM 52.0 °F 30.0 °F 43% 30.06 in 10.0 mi North 5.8 mph - N/A   Clear
9:53 PM 50.0 °F 28.9 °F 44% 30.09 in 10.0 mi NNE 8.1 mph - N/A   Partly Cloudy
10:53 PM 46.9 °F 28.9 °F 50% 30.11 in 10.0 mi North 5.8 mph - N/A   Clear
11:53 PM 46.9 °F 28.9 °F 50% 30.13 in 10.0 mi Calm Calm - N/A   Clear